Time,TemperatureF,DewpointF,PressureIn,WindDirection,WindDirectionDegrees,WindSpeedMPH,WindSpeedGustMPH,Humidity,HourlyPrecipIn,Conditions,Clouds,dailyrainin,SoftwareType,DateUTC
2013-08-19 00:02:00,65.1,48.6,29.95,WSW,248,1.0,1.8,55,0.00,,,0.00,WUHU216TE923,2013-08-19 07:02:00,
2013-08-19 00:07:00,65.1,48.6,29.95,WSW,248,1.3,2.0,55,0.00,,,0.00,WUHU216TE923,2013-08-19 07:07:00,
2013-08-19 00:12:00,65.1,48.6,29.95,WSW,248,1.3,2.0,55,0.00,,,0.00,WUHU216TE923,2013-08-19 07:12:00,
2013-08-19 00:17:00,65.1,48.6,29.95,WSW,248,1.3,2.0,55,0.00,,,0.00,WUHU216TE923,2013-08-19 07:17:00,
2013-08-19 00:22:00,64.6,48.7,29.95,West,270,1.3,2.0,56,0.00,,,0.00,WUHU216TE923,2013-08-19 07:22:00,
2013-08-19 00:27:00,64.4,48.5,29.95,SW,225,1.0,1.6,56,0.00,,,0.00,WUHU216TE923,2013-08-19 07:27:00,
2013-08-19 00:32:00,64.2,48.3,29.95,WSW,248,0.9,1.6,56,0.00,,,0.00,WUHU216TE923,2013-08-19 07:32:00,
2013-08-19 00:37:00,64.2,48.3,29.95,WSW,248,1.2,1.6,56,0.00,,,0.00,WUHU216TE923,2013-08-19 07:37:00,
2013-08-19 00:42:00,64.0,48.1,29.95,SW,225,1.6,2.2,56,0.00,,,0.00,WUHU216TE923,2013-08-19 07:42:00,
2013-08-19 00:47:00,63.9,48.0,29.95,WSW,248,1.8,2.2,56,0.00,,,0.00,WUHU216TE923,2013-08-19 07:47:00,
2013-08-19 00:52:00,63.9,48.5,29.95,WSW,248,1.6,1.8,57,0.00,,,0.00,WUHU216TE923,2013-08-19 07:52:00,
2013-08-19 00:57:00,63.7,48.3,29.95,WSW,248,1.3,1.6,57,0.00,,,0.00,WUHU216TE923,2013-08-19 07:57:00,
2013-08-19 01:02:00,63.5,48.1,29.95,SW,225,1.2,1.6,57,0.00,,,0.00,WUHU216TE923,2013-08-19 08:02:00,
2013-08-19 01:07:00,63.3,47.9,29.95,SW,225,1.5,1.7,57,0.00,,,0.00,WUHU216TE923,2013-08-19 08:07:00,
2013-08-19 01:12:00,63.3,47.9,29.95,WSW,248,1.2,1.7,57,0.00,,,0.00,WUHU216TE923,2013-08-19 08:12:00,
2013-08-19 01:17:00,63.1,47.7,29.96,SW,225,1.1,1.4,57,0.00,,,0.00,WUHU216TE923,2013-08-19 08:17:00,
2013-08-19 01:22:00,63.0,47.6,29.96,SW,225,1.2,1.4,57,0.00,,,0.00,WUHU216TE923,2013-08-19 08:22:00,
2013-08-19 01:27:00,62.8,47.5,29.96,SW,225,1.3,1.5,57,0.00,,,0.00,WUHU216TE923,2013-08-19 08:27:00,
2013-08-19 01:32:00,62.8,47.9,29.96,SW,225,1.4,1.5,58,0.00,,,0.00,WUHU216TE923,2013-08-19 08:32:00,
2013-08-19 01:37:00,62.6,47.7,29.96,WNW,293,1.3,1.4,58,0.00,,,0.00,WUHU216TE923,2013-08-19 08:37:00,
2013-08-19 01:42:00,62.6,47.7,29.96,WSW,248,1.1,1.8,58,0.00,,,0.00,WUHU216TE923,2013-08-19 08:42:00,
2013-08-19 01:47:00,62.4,47.6,29.96,SW,225,1.4,1.8,58,0.00,,,0.00,WUHU216TE923,2013-08-19 08:47:00,
2013-08-19 01:52:00,62.6,47.7,29.96,WSW,248,1.7,1.8,58,0.00,,,0.00,WUHU216TE923,2013-08-19 08:52:00,
2013-08-19 01:57:00,62.4,47.6,29.96,WSW,248,1.7,1.8,58,0.00,,,0.00,WUHU216TE923,2013-08-19 08:57:00,
2013-08-19 02:02:00,62.4,47.6,29.96,WSW,248,1.5,1.8,58,0.00,,,0.00,WUHU216TE923,2013-08-19 09:02:00,
2013-08-19 02:07:00,62.4,47.6,29.96,WSW,248,1.5,1.5,58,0.00,,,0.00,WUHU216TE923,2013-08-19 09:07:00,
2013-08-19 02:12:00,62.2,47.4,29.96,South,180,1.2,1.4,58,0.00,,,0.00,WUHU216TE923,2013-08-19 09:12:00,
2013-08-19 02:17:00,62.4,47.6,29.95,SW,225,1.4,1.7,58,0.00,,,0.00,WUHU216TE923,2013-08-19 09:17:00,
2013-08-19 02:22:00,62.6,47.7,29.95,WSW,248,1.4,1.7,58,0.00,,,0.00,WUHU216TE923,2013-08-19 09:22:00,
2013-08-19 02:27:00,62.6,48.2,29.95,WSW,248,1.4,1.5,59,0.00,,,0.00,WUHU216TE923,2013-08-19 09:27:00,
2013-08-19 02:32:00,62.8,48.4,29.95,WSW,248,1.4,1.5,59,0.00,,,0.00,WUHU216TE923,2013-08-19 09:32:00,
2013-08-19 02:37:00,62.8,48.4,29.94,West,270,1.4,1.4,59,0.00,,,0.00,WUHU216TE923,2013-08-19 09:37:00,
2013-08-19 02:42:00,62.8,48.4,29.94,SW,225,1.2,1.4,59,0.00,,,0.00,WUHU216TE923,2013-08-19 09:42:00,
2013-08-19 02:47:00,62.8,48.4,29.94,WSW,248,1.1,1.4,59,0.00,,,0.00,WUHU216TE923,2013-08-19 09:47:00,
2013-08-19 02:52:00,62.6,48.2,29.94,SE,135,0.7,1.1,59,0.00,,,0.00,WUHU216TE923,2013-08-19 09:52:00,
2013-08-19 02:57:00,62.4,48.0,29.95,WNW,293,0.3,0.7,59,0.00,,,0.00,WUHU216TE923,2013-08-19 09:57:00,
2013-08-19 03:02:00,62.2,48.3,29.95,WSW,248,0.0,0.3,60,0.00,,,0.00,WUHU216TE923,2013-08-19 10:02:00,
2013-08-19 03:07:00,61.9,48.0,29.95,WSW,248,0.0,0.0,60,0.00,,,0.00,WUHU216TE923,2013-08-19 10:07:00,
2013-08-19 03:12:00,61.9,48.0,29.95,WSW,248,0.0,0.0,60,0.00,,,0.00,WUHU216TE923,2013-08-19 10:12:00,
2013-08-19 03:17:00,61.9,48.0,29.94,WSW,248,0.6,0.6,60,0.00,,,0.00,WUHU216TE923,2013-08-19 10:17:00,
2013-08-19 03:22:00,61.5,47.6,29.94,WNW,293,0.9,1.8,60,0.00,,,0.00,WUHU216TE923,2013-08-19 10:22:00,
2013-08-19 03:27:00,61.5,47.6,29.94,NW,315,1.0,1.9,60,0.00,,,0.00,WUHU216TE923,2013-08-19 10:27:00,
2013-08-19 03:32:00,61.5,47.6,29.94,West,270,1.3,1.9,60,0.00,,,0.00,WUHU216TE923,2013-08-19 10:32:00,
2013-08-19 03:37:00,61.3,47.4,29.94,WNW,293,1.2,1.8,60,0.00,,,0.00,WUHU216TE923,2013-08-19 10:37:00,
2013-08-19 03:42:00,61.2,47.3,29.94,NW,315,0.7,1.8,60,0.00,,,0.00,WUHU216TE923,2013-08-19 10:42:00,
2013-08-19 03:47:00,61.0,47.1,29.94,West,270,0.6,1.4,60,0.00,,,0.00,WUHU216TE923,2013-08-19 10:47:00,
2013-08-19 03:52:00,61.0,47.1,29.94,WNW,293,1.1,1.8,60,0.00,,,0.00,WUHU216TE923,2013-08-19 10:52:00,
2013-08-19 03:57:00,60.8,46.5,29.94,West,270,1.3,1.8,59,0.00,,,0.00,WUHU216TE923,2013-08-19 10:57:00,
2013-08-19 04:02:00,60.6,46.8,29.94,SW,225,1.1,1.4,60,0.00,,,0.00,WUHU216TE923,2013-08-19 11:02:00,
2013-08-19 04:07:00,60.6,46.8,29.94,WSW,248,1.1,1.6,60,0.00,,,0.00,WUHU216TE923,2013-08-19 11:07:00,
2013-08-19 04:12:00,60.4,46.6,29.94,WSW,248,1.1,1.6,60,0.00,,,0.00,WUHU216TE923,2013-08-19 11:12:00,
2013-08-19 04:17:00,60.3,46.5,29.94,SW,225,0.8,1.3,60,0.00,,,0.00,WUHU216TE923,2013-08-19 11:17:00,
2013-08-19 04:22:00,60.3,46.5,29.94,WSW,248,0.5,1.3,60,0.00,,,0.00,WUHU216TE923,2013-08-19 11:22:00,
2013-08-19 04:27:00,60.1,46.7,29.94,WSW,248,0.8,1.1,61,0.00,,,0.00,WUHU216TE923,2013-08-19 11:27:00,
2013-08-19 04:32:00,59.9,46.6,29.94,WSW,248,0.6,1.1,61,0.00,,,0.00,WUHU216TE923,2013-08-19 11:32:00,
2013-08-19 04:37:00,59.9,47.0,29.95,WSW,248,0.8,1.4,62,0.00,,,0.00,WUHU216TE923,2013-08-19 11:37:00,
2013-08-19 04:42:00,59.7,46.8,29.95,WNW,293,0.9,2.7,62,0.00,,,0.00,WUHU216TE923,2013-08-19 11:42:00,
2013-08-19 04:47:00,60.1,47.2,29.95,South,180,1.2,2.9,62,0.00,,,0.00,WUHU216TE923,2013-08-19 11:47:00,
2013-08-19 04:52:00,60.3,47.4,29.95,West,270,2.0,5.2,62,0.00,,,0.00,WUHU216TE923,2013-08-19 11:52:00,
2013-08-19 04:57:00,60.4,47.5,29.95,South,180,2.1,5.2,62,0.00,,,0.00,WUHU216TE923,2013-08-19 11:57:00,
2013-08-19 05:02:00,60.1,47.6,29.95,South,180,2.2,2.8,63,0.00,,,0.00,WUHU216TE923,2013-08-19 12:02:00,
2013-08-19 05:07:00,59.7,47.6,29.95,SW,225,2.3,2.8,64,0.00,,,0.00,WUHU216TE923,2013-08-19 12:07:00,
2013-08-19 05:12:00,59.7,48.1,29.95,SW,225,2.6,3.8,65,0.00,,,0.00,WUHU216TE923,2013-08-19 12:12:00,
2013-08-19 05:17:00,59.7,48.5,29.95,South,180,2.7,3.8,66,0.00,,,0.00,WUHU216TE923,2013-08-19 12:17:00,
2013-08-19 05:22:00,59.9,48.7,29.95,SSE,158,2.7,3.4,66,0.00,,,0.00,WUHU216TE923,2013-08-19 12:22:00,
2013-08-19 05:27:00,59.9,49.1,29.95,SSW,203,2.5,5.0,67,0.00,,,0.00,WUHU216TE923,2013-08-19 12:27:00,
2013-08-19 05:32:00,60.1,49.3,29.95,SSW,203,2.7,5.7,67,0.00,,,0.00,WUHU216TE923,2013-08-19 12:32:00,
2013-08-19 05:37:00,59.9,49.1,29.96,SW,225,2.9,5.7,67,0.00,,,0.00,WUHU216TE923,2013-08-19 12:37:00,
2013-08-19 05:42:00,60.1,49.3,29.96,SSW,203,3.0,4.7,67,0.00,,,0.00,WUHU216TE923,2013-08-19 12:42:00,
2013-08-19 05:47:00,60.3,49.4,29.96,South,180,2.8,3.7,67,0.00,,,0.00,WUHU216TE923,2013-08-19 12:47:00,
2013-08-19 05:52:00,60.3,49.8,29.96,WSW,248,2.7,4.5,68,0.00,,,0.00,WUHU216TE923,2013-08-19 12:52:00,
2013-08-19 05:57:00,60.3,49.4,29.95,SSW,203,3.0,4.7,67,0.00,,,0.00,WUHU216TE923,2013-08-19 12:57:00,
2013-08-19 06:02:00,60.3,49.4,29.95,SW,225,3.8,4.9,67,0.00,,,0.00,WUHU216TE923,2013-08-19 13:02:00,
2013-08-19 06:07:00,60.3,49.4,29.95,SW,225,3.6,4.9,67,0.00,,,0.00,WUHU216TE923,2013-08-19 13:07:00,
2013-08-19 06:12:00,60.3,49.4,29.95,SW,225,3.6,4.0,67,0.00,,,0.00,WUHU216TE923,2013-08-19 13:12:00,
2013-08-19 06:17:00,60.3,49.4,29.95,West,270,3.8,7.3,67,0.00,,,0.00,WUHU216TE923,2013-08-19 13:17:00,
2013-08-19 06:22:00,60.3,49.4,29.95,WSW,248,4.0,7.3,67,0.00,,,0.00,WUHU216TE923,2013-08-19 13:22:00,
2013-08-19 06:27:00,60.4,49.1,29.95,South,180,4.3,6.7,66,0.00,,,0.00,WUHU216TE923,2013-08-19 13:27:00,
2013-08-19 06:32:00,60.4,49.1,29.95,WSW,248,4.9,8.2,66,0.00,,,0.00,WUHU216TE923,2013-08-19 13:32:00,
2013-08-19 06:37:00,60.4,49.1,29.95,SSW,203,5.5,9.2,66,0.00,,,0.00,WUHU216TE923,2013-08-19 13:37:00,
2013-08-19 06:42:00,60.6,48.9,29.95,WSW,248,5.3,9.2,65,0.00,,,0.00,WUHU216TE923,2013-08-19 13:42:00,
2013-08-19 06:47:00,60.6,49.3,29.95,South,180,4.9,6.5,66,0.00,,,0.00,WUHU216TE923,2013-08-19 13:47:00,
2013-08-19 06:52:00,60.6,48.9,29.95,SSW,203,5.1,8.0,65,0.00,,,0.00,WUHU216TE923,2013-08-19 13:52:00,
2013-08-19 06:57:00,60.6,48.9,29.95,South,180,5.5,8.0,65,0.00,,,0.00,WUHU216TE923,2013-08-19 13:57:00,
2013-08-19 07:02:00,60.6,48.9,29.95,SSW,203,5.7,6.9,65,0.00,,,0.00,WUHU216TE923,2013-08-19 14:02:00,
2013-08-19 07:07:00,60.6,48.9,29.95,SW,225,6.0,7.0,65,0.00,,,0.00,WUHU216TE923,2013-08-19 14:07:00,
2013-08-19 07:12:00,60.8,48.3,29.95,WSW,248,5.7,7.0,63,0.00,,,0.00,WUHU216TE923,2013-08-19 14:12:00,
2013-08-19 07:17:00,61.0,48.5,29.95,WSW,248,5.5,8.2,63,0.00,,,0.00,WUHU216TE923,2013-08-19 14:17:00,
2013-08-19 07:22:00,61.2,48.7,29.95,SW,225,5.0,8.2,63,0.00,,,0.00,WUHU216TE923,2013-08-19 14:22:00,
2013-08-19 07:27:00,61.2,48.7,29.95,SSW,203,4.9,6.5,63,0.00,,,0.00,WUHU216TE923,2013-08-19 14:27:00,
2013-08-19 07:32:00,61.3,48.7,29.95,South,180,4.7,6.5,63,0.00,,,0.00,WUHU216TE923,2013-08-19 14:32:00,
2013-08-19 07:37:00,61.5,48.9,29.95,SSW,203,4.1,5.3,63,0.00,,,0.00,WUHU216TE923,2013-08-19 14:37:00,
2013-08-19 07:42:00,61.9,48.9,29.95,NE,45,2.9,4.1,62,0.00,,,0.00,WUHU216TE923,2013-08-19 14:42:00,
2013-08-19 07:47:00,62.1,48.6,29.95,SSE,158,2.7,3.0,61,0.00,,,0.00,WUHU216TE923,2013-08-19 14:47:00,
2013-08-19 07:52:00,62.2,48.7,29.95,SW,225,2.0,3.0,61,0.00,,,0.00,WUHU216TE923,2013-08-19 14:52:00,
2013-08-19 07:57:00,62.4,48.9,29.95,SE,135,1.1,2.4,61,0.00,,,0.00,WUHU216TE923,2013-08-19 14:57:00,
2013-08-19 08:02:00,62.6,48.7,29.95,NNW,338,0.3,1.1,60,0.00,,,0.00,WUHU216TE923,2013-08-19 15:02:00,
2013-08-19 08:07:00,63.0,49.0,29.95,NNE,23,0.1,0.3,60,0.00,,,0.00,WUHU216TE923,2013-08-19 15:07:00,
2013-08-19 08:12:00,63.1,49.1,29.95,East,90,0.2,1.1,60,0.00,,,0.00,WUHU216TE923,2013-08-19 15:12:00,
2013-08-19 08:17:00,63.5,49.5,29.95,NE,45,0.2,1.1,60,0.00,,,0.00,WUHU216TE923,2013-08-19 15:17:00,
2013-08-19 08:22:00,63.5,49.5,29.95,ENE,68,0.4,1.6,60,0.00,,,0.00,WUHU216TE923,2013-08-19 15:22:00,
2013-08-19 08:27:00,63.7,49.2,29.95,SSE,158,0.5,1.6,59,0.00,,,0.00,WUHU216TE923,2013-08-19 15:27:00,
2013-08-19 08:32:00,63.9,49.4,29.95,ENE,68,0.6,2.3,59,0.00,,,0.00,WUHU216TE923,2013-08-19 15:32:00,
2013-08-19 08:37:00,64.2,49.7,29.96,NNW,338,0.8,2.3,59,0.00,,,0.00,WUHU216TE923,2013-08-19 15:37:00,
2013-08-19 08:42:00,64.4,49.4,29.96,WSW,248,0.9,1.7,58,0.00,,,0.00,WUHU216TE923,2013-08-19 15:42:00,
2013-08-19 08:47:00,64.6,49.6,29.96,NNE,23,0.6,1.3,58,0.00,,,0.00,WUHU216TE923,2013-08-19 15:47:00,
2013-08-19 08:52:00,64.8,49.8,29.96,NNE,23,0.4,1.6,58,0.00,,,0.00,WUHU216TE923,2013-08-19 15:52:00,
2013-08-19 08:57:00,65.1,49.6,29.96,NE,45,0.7,1.6,57,0.00,,,0.00,WUHU216TE923,2013-08-19 15:57:00,
2013-08-19 09:03:00,65.5,50.0,29.96,South,180,0.9,1.5,57,0.00,,,0.00,WUHU216TE923,2013-08-19 16:03:00,
2013-08-19 09:08:00,65.7,50.2,29.96,NNW,338,0.8,1.5,57,0.00,,,0.00,WUHU216TE923,2013-08-19 16:08:00,
2013-08-19 09:13:00,66.0,50.0,29.96,East,90,0.6,1.2,56,0.00,,,0.00,WUHU216TE923,2013-08-19 16:13:00,
2013-08-19 09:18:00,66.4,49.9,29.95,North,0,1.0,1.6,55,0.00,,,0.00,WUHU216TE923,2013-08-19 16:18:00,
2013-08-19 09:23:00,66.7,50.1,29.95,North,0,1.4,2.4,55,0.00,,,0.00,WUHU216TE923,2013-08-19 16:23:00,
2013-08-19 09:28:00,66.9,50.3,29.95,NW,315,1.5,2.4,55,0.00,,,0.00,WUHU216TE923,2013-08-19 16:28:00,
2013-08-19 09:33:00,67.1,49.5,29.95,ENE,68,1.1,1.8,53,0.00,,,0.00,WUHU216TE923,2013-08-19 16:33:00,
2013-08-19 09:38:00,67.3,50.2,29.96,North,0,0.5,1.8,54,0.00,,,0.00,WUHU216TE923,2013-08-19 16:38:00,
2013-08-19 09:43:00,67.6,49.9,29.96,East,90,0.4,0.5,53,0.00,,,0.00,WUHU216TE923,2013-08-19 16:43:00,
2013-08-19 09:48:00,67.8,49.6,29.96,ENE,68,0.7,1.4,52,0.00,,,0.00,WUHU216TE923,2013-08-19 16:48:00,
2013-08-19 09:53:00,68.2,50.0,29.96,ESE,113,0.8,1.4,52,0.00,,,0.00,WUHU216TE923,2013-08-19 16:53:00,
2013-08-19 09:58:00,68.4,50.2,29.95,ESE,113,0.5,1.4,52,0.00,,,0.00,WUHU216TE923,2013-08-19 16:58:00,
2013-08-19 10:03:00,69.1,50.3,29.95,NW,315,0.9,0.9,51,0.00,,,0.00,WUHU216TE923,2013-08-19 17:03:00,
2013-08-19 10:08:00,69.3,49.9,29.95,ENE,68,1.1,1.1,50,0.00,,,0.00,WUHU216TE923,2013-08-19 17:08:00,
2013-08-19 10:13:00,69.6,50.2,29.95,SE,135,0.9,1.1,50,0.00,,,0.00,WUHU216TE923,2013-08-19 17:13:00,
2013-08-19 10:18:00,69.8,50.4,29.96,WSW,248,0.7,1.1,50,0.00,,,0.00,WUHU216TE923,2013-08-19 17:18:00,
2013-08-19 10:23:00,70.3,50.3,29.96,East,90,0.6,1.2,49,0.00,,,0.00,WUHU216TE923,2013-08-19 17:23:00,
2013-08-19 10:28:00,70.5,50.5,29.96,NW,315,0.7,1.2,49,0.00,,,0.00,WUHU216TE923,2013-08-19 17:28:00,
2013-08-19 10:33:00,71.1,49.9,29.96,NNW,338,1.0,1.0,47,0.00,,,0.00,WUHU216TE923,2013-08-19 17:33:00,
2013-08-19 10:38:00,71.4,49.5,29.95,NW,315,1.1,1.5,46,0.00,,,0.00,WUHU216TE923,2013-08-19 17:38:00,
2013-08-19 10:43:00,71.8,49.9,29.95,NNE,23,1.0,2.2,46,0.00,,,0.00,WUHU216TE923,2013-08-19 17:43:00,
2013-08-19 10:48:00,72.1,50.2,29.95,ENE,68,1.1,2.7,46,0.00,,,0.00,WUHU216TE923,2013-08-19 17:48:00,
2013-08-19 10:53:00,72.7,50.1,29.95,NNW,338,1.7,2.7,45,0.00,,,0.00,WUHU216TE923,2013-08-19 17:53:00,
2013-08-19 10:58:00,72.9,49.7,29.95,ESE,113,2.0,2.7,44,0.00,,,0.00,WUHU216TE923,2013-08-19 17:58:00,
2013-08-19 11:03:00,73.4,48.8,29.95,East,90,1.9,2.7,42,0.00,,,0.00,WUHU216TE923,2013-08-19 18:03:00,
2013-08-19 11:08:00,73.8,47.9,29.95,NE,45,1.5,2.1,40,0.00,,,0.00,WUHU216TE923,2013-08-19 18:08:00,
2013-08-19 11:13:00,74.1,47.4,29.95,ESE,113,1.8,2.3,39,0.00,,,0.00,WUHU216TE923,2013-08-19 18:13:00,
2013-08-19 11:18:00,74.3,46.9,29.94,ENE,68,1.9,4.2,38,0.00,,,0.00,WUHU216TE923,2013-08-19 18:18:00,
2013-08-19 11:23:00,74.5,47.1,29.94,ESE,113,1.6,4.2,38,0.00,,,0.00,WUHU216TE923,2013-08-19 18:23:00,
2013-08-19 11:28:00,74.8,47.4,29.94,ESE,113,1.2,3.0,38,0.00,,,0.00,WUHU216TE923,2013-08-19 18:28:00,
2013-08-19 11:33:00,75.4,46.4,29.94,ESE,113,1.2,1.8,36,0.00,,,0.00,WUHU216TE923,2013-08-19 18:33:00,
2013-08-19 11:38:00,75.7,46.7,29.95,SE,135,1.2,1.7,36,0.00,,,0.00,WUHU216TE923,2013-08-19 18:38:00,
2013-08-19 11:43:00,75.7,45.9,29.95,ENE,68,1.1,3.8,35,0.00,,,0.00,WUHU216TE923,2013-08-19 18:43:00,
2013-08-19 11:48:00,75.9,46.9,29.95,NE,45,1.3,3.8,36,0.00,,,0.00,WUHU216TE923,2013-08-19 18:48:00,
2013-08-19 11:53:00,76.5,47.4,29.95,SE,135,1.5,1.6,36,0.00,,,0.00,WUHU216TE923,2013-08-19 18:53:00,
2013-08-19 11:58:00,76.6,47.5,29.94,ENE,68,1.2,1.5,36,0.00,,,0.00,WUHU216TE923,2013-08-19 18:58:00,
2013-08-19 12:03:00,76.8,46.9,29.94,NW,315,1.9,5.8,35,0.00,,,0.00,WUHU216TE923,2013-08-19 19:03:00,
2013-08-19 12:08:00,76.8,46.9,29.94,NW,315,2.5,5.8,35,0.00,,,0.00,WUHU216TE923,2013-08-19 19:08:00,
2013-08-19 12:13:00,76.8,46.9,29.94,NW,315,2.5,3.4,35,0.00,,,0.00,WUHU216TE923,2013-08-19 19:13:00,
2013-08-19 12:18:00,77.2,46.5,29.94,NW,315,2.5,3.4,34,0.00,,,0.00,WUHU216TE923,2013-08-19 19:18:00,
2013-08-19 12:23:00,77.2,45.7,29.94,NNW,338,1.9,3.4,33,0.00,,,0.00,WUHU216TE923,2013-08-19 19:23:00,
2013-08-19 12:28:00,77.2,46.5,29.94,NNW,338,1.8,3.2,34,0.00,,,0.00,WUHU216TE923,2013-08-19 19:28:00,
2013-08-19 12:33:00,77.5,45.2,29.94,ENE,68,1.5,4.0,32,0.00,,,0.00,WUHU216TE923,2013-08-19 19:33:00,
2013-08-19 12:38:00,77.5,46.0,29.93,ESE,113,1.6,4.0,33,0.00,,,0.00,WUHU216TE923,2013-08-19 19:38:00,
2013-08-19 12:43:00,77.7,46.1,29.93,NNW,338,1.2,2.5,33,0.00,,,0.00,WUHU216TE923,2013-08-19 19:43:00,
2013-08-19 12:48:00,78.1,44.8,29.93,ENE,68,1.5,4.2,31,0.00,,,0.00,WUHU216TE923,2013-08-19 19:48:00,
2013-08-19 12:53:00,77.9,45.5,29.93,SE,135,1.4,4.2,32,0.00,,,0.00,WUHU216TE923,2013-08-19 19:53:00,
2013-08-19 12:58:00,78.3,45.0,29.92,NW,315,1.2,1.8,31,0.00,,,0.00,WUHU216TE923,2013-08-19 19:58:00,
2013-08-19 13:03:00,78.4,45.9,29.92,SE,135,1.4,1.8,32,0.00,,,0.00,WUHU216TE923,2013-08-19 20:03:00,
2013-08-19 13:08:00,78.3,45.0,29.92,SE,135,1.5,1.5,31,0.00,,,0.00,WUHU216TE923,2013-08-19 20:08:00,
2013-08-19 13:13:00,78.8,45.5,29.92,NE,45,1.4,2.0,31,0.00,,,0.00,WUHU216TE923,2013-08-19 20:13:00,
2013-08-19 13:18:00,78.8,45.5,29.92,NE,45,2.0,3.1,31,0.00,,,0.00,WUHU216TE923,2013-08-19 20:18:00,
2013-08-19 13:23:00,79.3,45.0,29.92,ENE,68,2.3,3.2,30,0.00,,,0.00,WUHU216TE923,2013-08-19 20:23:00,
2013-08-19 13:28:00,79.3,45.0,29.92,SE,135,2.2,3.2,30,0.00,,,0.00,WUHU216TE923,2013-08-19 20:28:00,
2013-08-19 13:33:00,79.3,45.9,29.92,ENE,68,1.8,2.2,31,0.00,,,0.00,WUHU216TE923,2013-08-19 20:33:00,
2013-08-19 13:38:00,79.3,45.9,29.91,WNW,293,1.1,1.8,31,0.00,,,0.00,WUHU216TE923,2013-08-19 20:38:00,
2013-08-19 13:43:00,79.7,45.4,29.91,ENE,68,1.5,3.6,30,0.00,,,0.00,WUHU216TE923,2013-08-19 20:43:00,
2013-08-19 13:48:00,79.9,45.5,29.91,East,90,1.9,3.6,30,0.00,,,0.00,WUHU216TE923,2013-08-19 20:48:00,
2013-08-19 13:53:00,80.2,44.0,29.91,SE,135,2.4,3.3,28,0.00,,,0.00,WUHU216TE923,2013-08-19 20:53:00,
2013-08-19 13:58:00,80.2,44.9,29.91,ENE,68,2.2,3.3,29,0.00,,,0.00,WUHU216TE923,2013-08-19 20:58:00,
2013-08-19 14:03:00,80.4,44.2,29.91,ENE,68,2.9,3.3,28,0.00,,,0.00,WUHU216TE923,2013-08-19 21:03:00,
2013-08-19 14:08:00,80.6,43.4,29.91,NE,45,3.5,7.3,27,0.00,,,0.00,WUHU216TE923,2013-08-19 21:08:00,
2013-08-19 14:13:00,80.8,43.6,29.91,NW,315,3.3,7.3,27,0.00,,,0.00,WUHU216TE923,2013-08-19 21:13:00,
2013-08-19 14:18:00,81.0,43.7,29.90,NE,45,3.3,5.0,27,0.00,,,0.00,WUHU216TE923,2013-08-19 21:18:00,
2013-08-19 14:23:00,81.3,43.0,29.90,NNE,23,3.0,3.7,26,0.00,,,0.00,WUHU216TE923,2013-08-19 21:23:00,
2013-08-19 14:28:00,81.3,44.0,29.90,NNW,338,3.0,3.7,27,0.00,,,0.00,WUHU216TE923,2013-08-19 21:28:00,
2013-08-19 14:33:00,81.3,43.0,29.90,NNW,338,3.7,5.2,26,0.00,,,0.00,WUHU216TE923,2013-08-19 21:33:00,
2013-08-19 14:38:00,81.5,43.2,29.89,North,0,4.1,6.2,26,0.00,,,0.00,WUHU216TE923,2013-08-19 21:38:00,
2013-08-19 14:43:00,81.7,43.4,29.89,NNW,338,4.7,6.2,26,0.00,,,0.00,WUHU216TE923,2013-08-19 21:43:00,
2013-08-19 14:48:00,81.7,42.4,29.89,NNW,338,4.9,5.9,25,0.00,,,0.00,WUHU216TE923,2013-08-19 21:48:00,
2013-08-19 14:53:00,81.9,42.5,29.89,East,90,4.5,5.4,25,0.00,,,0.00,WUHU216TE923,2013-08-19 21:53:00,
2013-08-19 14:58:00,81.9,43.5,29.90,SSE,158,4.0,4.6,26,0.00,,,0.00,WUHU216TE923,2013-08-19 21:58:00,
2013-08-19 15:03:00,82.0,42.6,29.90,NNW,338,3.6,6.8,25,0.00,,,0.00,WUHU216TE923,2013-08-19 22:03:00,
2013-08-19 15:08:00,82.0,42.6,29.90,WNW,293,3.6,6.8,25,0.00,,,0.00,WUHU216TE923,2013-08-19 22:08:00,
2013-08-19 15:13:00,82.2,42.8,29.90,ENE,68,3.7,5.1,25,0.00,,,0.00,WUHU216TE923,2013-08-19 22:13:00,
2013-08-19 15:18:00,82.2,42.8,29.89,NE,45,3.5,3.7,25,0.00,,,0.00,WUHU216TE923,2013-08-19 22:18:00,
2013-08-19 15:23:00,82.2,42.8,29.89,NNE,23,4.0,4.2,25,0.00,,,0.00,WUHU216TE923,2013-08-19 22:23:00,
2013-08-19 15:28:00,82.0,42.6,29.89,NE,45,4.5,6.0,25,0.00,,,0.00,WUHU216TE923,2013-08-19 22:28:00,
2013-08-19 15:33:00,82.2,42.8,29.89,ENE,68,4.3,7.9,25,0.00,,,0.00,WUHU216TE923,2013-08-19 22:33:00,
2013-08-19 15:38:00,82.0,42.6,29.88,NNW,338,4.0,7.9,25,0.00,,,0.00,WUHU216TE923,2013-08-19 22:38:00,
2013-08-19 15:43:00,82.0,42.6,29.88,NNE,23,4.0,4.0,25,0.00,,,0.00,WUHU216TE923,2013-08-19 22:43:00,
2013-08-19 15:48:00,82.2,41.7,29.88,North,0,4.2,5.4,24,0.00,,,0.00,WUHU216TE923,2013-08-19 22:48:00,
2013-08-19 15:53:00,82.0,41.6,29.88,North,0,4.3,6.6,24,0.00,,,0.00,WUHU216TE923,2013-08-19 22:53:00,
2013-08-19 15:58:00,82.0,41.6,29.88,North,0,4.6,6.7,24,0.00,,,0.00,WUHU216TE923,2013-08-19 22:58:00,
2013-08-19 16:03:00,82.0,42.6,29.88,ESE,113,4.3,6.7,25,0.00,,,0.00,WUHU216TE923,2013-08-19 23:03:00,
2013-08-19 16:08:00,82.0,42.6,29.88,ENE,68,3.7,4.5,25,0.00,,,0.00,WUHU216TE923,2013-08-19 23:08:00,
2013-08-19 16:13:00,82.0,41.6,29.88,NNW,338,3.9,5.5,24,0.00,,,0.00,WUHU216TE923,2013-08-19 23:13:00,
2013-08-19 16:18:00,81.9,41.5,29.88,NW,315,4.2,5.5,24,0.00,,,0.00,WUHU216TE923,2013-08-19 23:18:00,
2013-08-19 16:23:00,81.9,40.4,29.88,East,90,4.5,8.1,23,0.00,,,0.00,WUHU216TE923,2013-08-19 23:23:00,
2013-08-19 16:28:00,81.9,41.5,29.88,NNW,338,4.5,8.1,24,0.00,,,0.00,WUHU216TE923,2013-08-19 23:28:00,
2013-08-19 16:33:00,81.7,41.3,29.88,NW,315,4.6,8.1,24,0.00,,,0.00,WUHU216TE923,2013-08-19 23:33:00,
2013-08-19 16:38:00,81.7,41.3,29.87,NNE,23,4.7,8.8,24,0.00,,,0.00,WUHU216TE923,2013-08-19 23:38:00,
2013-08-19 16:43:00,81.7,41.3,29.87,East,90,4.3,8.8,24,0.00,,,0.00,WUHU216TE923,2013-08-19 23:43:00,
2013-08-19 16:48:00,81.7,40.2,29.87,ENE,68,4.3,4.3,23,0.00,,,0.00,WUHU216TE923,2013-08-19 23:48:00,
2013-08-19 16:53:00,81.7,41.3,29.87,NNW,338,3.9,9.6,24,0.00,,,0.00,WUHU216TE923,2013-08-19 23:53:00,
2013-08-19 16:58:00,81.7,41.3,29.86,NNW,338,4.2,9.6,24,0.00,,,0.00,WUHU216TE923,2013-08-19 23:58:00,
2013-08-19 17:03:00,81.7,40.2,29.86,NNE,23,4.9,6.0,23,0.00,,,0.00,WUHU216TE923,2013-08-20 00:03:00,
2013-08-19 17:08:00,81.7,40.2,29.86,NE,45,4.2,4.9,23,0.00,,,0.00,WUHU216TE923,2013-08-20 00:08:00,
2013-08-19 17:13:00,81.7,41.3,29.86,South,180,3.7,4.3,24,0.00,,,0.00,WUHU216TE923,2013-08-20 00:13:00,
2013-08-19 17:18:00,81.7,41.3,29.87,NE,45,4.0,5.7,24,0.00,,,0.00,WUHU216TE923,2013-08-20 00:18:00,
2013-08-19 17:23:00,81.5,41.1,29.87,NE,45,3.8,5.7,24,0.00,,,0.00,WUHU216TE923,2013-08-20 00:23:00,
2013-08-19 17:28:00,81.3,42.0,29.87,ESE,113,4.4,7.5,25,0.00,,,0.00,WUHU216TE923,2013-08-20 00:28:00,
2013-08-19 17:33:00,81.0,41.8,29.87,ENE,68,4.7,7.5,25,0.00,,,0.00,WUHU216TE923,2013-08-20 00:33:00,
2013-08-19 17:38:00,80.8,41.6,29.86,NNW,338,4.4,5.8,25,0.00,,,0.00,WUHU216TE923,2013-08-20 00:38:00,
2013-08-19 17:43:00,80.6,41.4,29.86,NNE,23,3.9,4.4,25,0.00,,,0.00,WUHU216TE923,2013-08-20 00:43:00,
2013-08-19 17:48:00,80.6,41.4,29.86,NE,45,3.7,7.2,25,0.00,,,0.00,WUHU216TE923,2013-08-20 00:48:00,
2013-08-19 17:53:00,80.2,41.1,29.86,NNE,23,4.0,7.2,25,0.00,,,0.00,WUHU216TE923,2013-08-20 00:53:00,
2013-08-19 17:58:00,80.1,41.0,29.86,WSW,248,4.6,5.6,25,0.00,,,0.00,WUHU216TE923,2013-08-20 00:58:00,
2013-08-19 18:03:00,79.7,40.7,29.86,ENE,68,3.9,4.6,25,0.00,,,0.00,WUHU216TE923,2013-08-20 01:03:00,
2013-08-19 18:08:00,79.5,40.5,29.86,ENE,68,3.7,4.6,25,0.00,,,0.00,WUHU216TE923,2013-08-20 01:08:00,
2013-08-19 18:13:00,79.5,41.5,29.86,ENE,68,3.7,5.1,26,0.00,,,0.00,WUHU216TE923,2013-08-20 01:13:00,
2013-08-19 18:18:00,79.3,43.2,29.85,ENE,68,3.6,5.1,28,0.00,,,0.00,WUHU216TE923,2013-08-20 01:18:00,
2013-08-19 18:23:00,79.2,43.1,29.85,ENE,68,3.8,6.2,28,0.00,,,0.00,WUHU216TE923,2013-08-20 01:23:00,
2013-08-19 18:28:00,79.0,43.0,29.85,NNW,338,3.8,10.0,28,0.00,,,0.00,WUHU216TE923,2013-08-20 01:28:00,
2013-08-19 18:33:00,78.6,44.4,29.85,NNE,23,4.0,10.0,30,0.00,,,0.00,WUHU216TE923,2013-08-20 01:33:00,
2013-08-19 18:38:00,78.4,44.2,29.86,ENE,68,4.0,5.2,30,0.00,,,0.00,WUHU216TE923,2013-08-20 01:38:00,
2013-08-19 18:43:00,78.1,44.8,29.86,North,0,4.1,4.1,31,0.00,,,0.00,WUHU216TE923,2013-08-20 01:43:00,
2013-08-19 18:48:00,77.9,45.5,29.86,NNW,338,3.7,6.3,32,0.00,,,0.00,WUHU216TE923,2013-08-20 01:48:00,
2013-08-19 18:53:00,77.5,46.8,29.86,NE,45,3.7,6.3,34,0.00,,,0.00,WUHU216TE923,2013-08-20 01:53:00,
2013-08-19 18:58:00,77.4,47.5,29.86,ENE,68,4.0,5.4,35,0.00,,,0.00,WUHU216TE923,2013-08-20 01:58:00,
2013-08-19 19:03:00,77.0,47.9,29.86,NW,315,3.6,6.3,36,0.00,,,0.00,WUHU216TE923,2013-08-20 02:03:00,
2013-08-19 19:08:00,76.6,47.5,29.86,NW,315,3.4,6.5,36,0.00,,,0.00,WUHU216TE923,2013-08-20 02:08:00,
2013-08-19 19:13:00,76.3,47.2,29.86,NW,315,3.0,6.5,36,0.00,,,0.00,WUHU216TE923,2013-08-20 02:13:00,
2013-08-19 19:18:00,75.9,47.6,29.86,NE,45,3.2,3.2,37,0.00,,,0.00,WUHU216TE923,2013-08-20 02:18:00,
2013-08-19 19:23:00,75.6,48.1,29.86,NE,45,3.2,3.3,38,0.00,,,0.00,WUHU216TE923,2013-08-20 02:23:00,
2013-08-19 19:28:00,75.6,48.1,29.86,NE,45,3.2,3.3,38,0.00,,,0.00,WUHU216TE923,2013-08-20 02:28:00,
2013-08-19 19:33:00,75.0,48.9,29.86,North,0,3.6,5.4,40,0.00,,,0.00,WUHU216TE923,2013-08-20 02:33:00,
2013-08-19 19:38:00,74.7,48.7,29.87,ENE,68,4.1,5.4,40,0.00,,,0.00,WUHU216TE923,2013-08-20 02:38:00,
2013-08-19 19:43:00,74.3,48.3,29.87,East,90,4.1,6.6,40,0.00,,,0.00,WUHU216TE923,2013-08-20 02:43:00,
2013-08-19 19:48:00,74.1,48.1,29.87,ENE,68,3.5,6.6,40,0.00,,,0.00,WUHU216TE923,2013-08-20 02:48:00,
2013-08-19 19:53:00,73.8,48.5,29.87,East,90,2.7,4.9,41,0.00,,,0.00,WUHU216TE923,2013-08-20 02:53:00,
2013-08-19 19:58:00,73.6,48.4,29.87,NE,45,3.0,7.1,41,0.00,,,0.00,WUHU216TE923,2013-08-20 02:58:00,
2013-08-19 20:03:00,73.2,49.3,29.87,NE,45,3.3,7.1,43,0.00,,,0.00,WUHU216TE923,2013-08-20 03:03:00,
2013-08-19 20:08:00,73.0,49.1,29.87,North,0,3.4,4.8,43,0.00,,,0.00,WUHU216TE923,2013-08-20 03:08:00,
2013-08-19 20:13:00,72.7,48.9,29.87,NNE,23,3.2,4.5,43,0.00,,,0.00,WUHU216TE923,2013-08-20 03:13:00,
2013-08-19 20:18:00,72.3,48.5,29.88,NE,45,3.3,6.1,43,0.00,,,0.00,WUHU216TE923,2013-08-20 03:18:00,
2013-08-19 20:23:00,72.1,48.9,29.88,North,0,3.3,6.1,44,0.00,,,0.00,WUHU216TE923,2013-08-20 03:23:00,
2013-08-19 20:28:00,72.0,48.9,29.88,NE,45,3.1,3.3,44,0.00,,,0.00,WUHU216TE923,2013-08-20 03:28:00,
2013-08-19 20:33:00,71.6,48.5,29.88,NNE,23,2.0,4.8,44,0.00,,,0.00,WUHU216TE923,2013-08-20 03:33:00,
2013-08-19 20:38:00,71.2,48.1,29.88,NNE,23,2.3,5.6,44,0.00,,,0.00,WUHU216TE923,2013-08-20 03:38:00,
2013-08-19 20:43:00,70.9,48.5,29.88,NNE,23,3.1,5.6,45,0.00,,,0.00,WUHU216TE923,2013-08-20 03:43:00,
2013-08-19 20:48:00,70.9,48.5,29.88,ESE,113,3.0,4.9,45,0.00,,,0.00,WUHU216TE923,2013-08-20 03:48:00,
2013-08-19 20:53:00,70.5,48.1,29.88,NNE,23,2.8,3.9,45,0.00,,,0.00,WUHU216TE923,2013-08-20 03:53:00,
2013-08-19 20:58:00,70.3,47.9,29.89,NNW,338,2.9,4.5,45,0.00,,,0.00,WUHU216TE923,2013-08-20 03:58:00,
2013-08-19 21:03:00,70.2,48.4,29.89,NW,315,3.4,7.2,46,0.00,,,0.00,WUHU216TE923,2013-08-20 04:03:00,
2013-08-19 21:08:00,69.8,48.1,29.89,NNW,338,3.6,7.2,46,0.00,,,0.00,WUHU216TE923,2013-08-20 04:08:00,
2013-08-19 21:13:00,69.8,48.1,29.89,NE,45,3.0,5.6,46,0.00,,,0.00,WUHU216TE923,2013-08-20 04:13:00,
2013-08-19 21:18:00,69.6,47.9,29.90,NNW,338,2.6,3.0,46,0.00,,,0.00,WUHU216TE923,2013-08-20 04:18:00,
2013-08-19 21:23:00,69.4,47.7,29.90,NNW,338,2.2,3.0,46,0.00,,,0.00,WUHU216TE923,2013-08-20 04:23:00,
2013-08-19 21:28:00,69.3,47.6,29.90,NNE,23,2.0,2.2,46,0.00,,,0.00,WUHU216TE923,2013-08-20 04:28:00,
2013-08-19 21:33:00,69.1,48.0,29.90,ENE,68,1.3,3.7,47,0.00,,,0.00,WUHU216TE923,2013-08-20 04:33:00,
2013-08-19 21:38:00,68.9,47.8,29.90,NNW,338,0.9,3.7,47,0.00,,,0.00,WUHU216TE923,2013-08-20 04:38:00,
2013-08-19 21:43:00,68.5,47.5,29.90,NE,45,0.9,1.2,47,0.00,,,0.00,WUHU216TE923,2013-08-20 04:43:00,
2013-08-19 21:48:00,68.4,47.4,29.90,NNE,23,0.6,1.1,47,0.00,,,0.00,WUHU216TE923,2013-08-20 04:48:00,
2013-08-19 21:53:00,68.2,47.8,29.90,ESE,113,0.7,1.6,48,0.00,,,0.00,WUHU216TE923,2013-08-20 04:53:00,
2013-08-19 21:58:00,68.0,47.6,29.90,ENE,68,0.8,1.6,48,0.00,,,0.00,WUHU216TE923,2013-08-20 04:58:00,
2013-08-19 22:03:00,67.8,47.4,29.90,NNW,338,0.7,0.8,48,0.00,,,0.00,WUHU216TE923,2013-08-20 05:03:00,
2013-08-19 22:08:00,67.8,47.4,29.90,NNE,23,0.9,1.0,48,0.00,,,0.00,WUHU216TE923,2013-08-20 05:08:00,
2013-08-19 22:13:00,67.5,47.7,29.90,NNW,338,1.1,1.2,49,0.00,,,0.00,WUHU216TE923,2013-08-20 05:13:00,
2013-08-19 22:18:00,67.3,47.5,29.90,NE,45,1.2,1.4,49,0.00,,,0.00,WUHU216TE923,2013-08-20 05:18:00,
2013-08-19 22:23:00,67.1,47.3,29.90,North,0,1.5,1.5,49,0.00,,,0.00,WUHU216TE923,2013-08-20 05:23:00,
2013-08-19 22:28:00,66.9,47.1,29.90,ENE,68,1.5,3.5,49,0.00,,,0.00,WUHU216TE923,2013-08-20 05:28:00,
2013-08-19 22:33:00,66.7,47.0,29.90,NE,45,1.7,3.5,49,0.00,,,0.00,WUHU216TE923,2013-08-20 05:33:00,
2013-08-19 22:38:00,66.4,46.7,29.90,NW,315,1.3,2.2,49,0.00,,,0.00,WUHU216TE923,2013-08-20 05:38:00,
2013-08-19 22:43:00,66.2,46.5,29.90,NNE,23,0.8,1.7,49,0.00,,,0.00,WUHU216TE923,2013-08-20 05:43:00,
2013-08-19 22:48:00,66.0,46.9,29.90,NNE,23,0.7,1.8,50,0.00,,,0.00,WUHU216TE923,2013-08-20 05:48:00,
2013-08-19 22:53:00,65.7,46.6,29.90,NNW,338,1.4,2.3,50,0.00,,,0.00,WUHU216TE923,2013-08-20 05:53:00,
2013-08-19 22:58:00,65.5,46.4,29.91,NW,315,1.6,2.3,50,0.00,,,0.00,WUHU216TE923,2013-08-20 05:58:00,
2013-08-19 23:03:00,65.3,46.8,29.91,NE,45,1.3,1.6,51,0.00,,,0.00,WUHU216TE923,2013-08-20 06:03:00,
2013-08-19 23:08:00,65.3,46.8,29.91,NNE,23,1.1,1.6,51,0.00,,,0.00,WUHU216TE923,2013-08-20 06:08:00,
2013-08-19 23:13:00,64.9,46.4,29.91,NNW,338,0.8,1.6,51,0.00,,,0.00,WUHU216TE923,2013-08-20 06:13:00,
2013-08-19 23:18:00,64.9,46.9,29.93,North,0,0.9,1.6,52,0.00,,,0.00,WUHU216TE923,2013-08-20 06:18:00,
2013-08-19 23:23:00,64.6,46.6,29.93,NNW,338,0.8,1.6,52,0.00,,,0.00,WUHU216TE923,2013-08-20 06:23:00,
2013-08-19 23:28:00,64.6,46.6,29.93,NNW,338,0.5,1.6,52,0.00,,,0.00,WUHU216TE923,2013-08-20 06:28:00,
2013-08-19 23:33:00,64.6,47.2,29.93,NW,315,0.3,0.5,53,0.00,,,0.00,WUHU216TE923,2013-08-20 06:33:00,
2013-08-19 23:38:00,64.2,46.8,29.91,WNW,293,0.3,0.3,53,0.00,,,0.00,WUHU216TE923,2013-08-20 06:38:00,
2013-08-19 23:43:00,64.0,46.6,29.91,NW,315,0.3,1.6,53,0.00,,,0.00,WUHU216TE923,2013-08-20 06:43:00,
2013-08-19 23:48:00,63.9,46.5,29.91,NW,315,0.2,1.6,53,0.00,,,0.00,WUHU216TE923,2013-08-20 06:48:00,
2013-08-19 23:53:00,63.7,46.8,29.91,NW,315,0.4,1.2,54,0.00,,,0.00,WUHU216TE923,2013-08-20 06:53:00,
2013-08-19 23:58:00,63.7,46.8,29.91,NNW,338,0.6,1.3,54,0.00,,,0.00,WUHU216TE923,2013-08-20 06:58:00,